x

Sentry Shoal (46131) Wave Buoy

7:00 - Sun 23rd Nov 2014 All times are PST. -8 hours from GMT.

  • Sig Wave height 2.6ft
  • Peak Period 5s
  • Wind
    4mph, 7mph gusts
  • Sea Temp 49°f
  • Luft Temp 45°f
  • Sea Pressure 1013.3mb
  • Sentry Shoal
  • Sentry Shoal

More Historic Weather Station data

Upgrade to MSW Pro to gain access to the past 30 days of data for over 8000 Wavebouys and Weather Stations around the globe.

Join Pro

Comparision Forecast

View Surf forecast
   
So 11/23 7:00 2.5ft 5s 4 7 mph 1013.3mb 49f 45f
6:00 3.5ft 4s 11 13 mph 1012.3mb 49f 46f
5:00 4.5ft 5s 20 25 mph 1012.4mb 49f 47f
4:00 4.5ft 5s 20 25 mph 1011.9mb 49f 47f
3:00 5ft 5s 27 31 mph 1011.5mb 49f 48f
2:00 4ft 4s 29 36 mph 1012.1mb 49f 49f
1:00 3ft 4s 27 34 mph 1013.3mb 49f 49f
12:00 2.5ft 3s 13 18 mph 1014.4mb 49f 48f
Sa 11/22 11:00 1.6ft 3s 20 22 mph 1014.5mb 49f 49f
10:00 1.3ft 2s 16 20 mph 1014.9mb 49f 49f
9:00 0.3ft 2s 11 13 mph 1015mb 49f 48f
8:00 0.3ft 7s 7
mph
1014.8mb 49f 48f
7:00 0.3ft 7s 9
mph
1013.8mb 49f 48f
6:00  -  8s 7
mph
1013.9mb 49f 48f
5:00  -  4s 7
mph
1012.7mb 49f 48f
4:00  -  5s 4 7 mph 1012.4mb 49f 48f
3:00  -  3s 2 4 mph 1011.6mb 49f 51f
2:00 0.3ft 3s 2
mph
1011mb 49f 49f
1:00 0.3ft 2s 4
mph
1010.2mb 49f 48f
12:00 0.3ft 2s 7 9 mph 1009.1mb 49f 47f
11:00 0.3ft 2s 9
mph
1008.2mb 49f 47f
10:00  -  4s 4 7 mph 1007mb 49f 47f
9:00  -  4s 4 7 mph 1005.7mb 49f 47f
8:00 0.3ft 3s  -  2 mph 1004.4mb 49f 46f
7:00 0.3ft 7s 4 7 mph 1003.3mb 49f 46f
6:00 0.3ft 7s 2 4 mph 1002.2mb 49f 45f
5:00 0.3ft 3s 4
mph
1001.4mb 49f 45f
4:00 0.3ft 3s 4
mph
1000.7mb 49f 46f
3:00 0.3ft 3s 7
mph
999.9mb 49f 46f
2:00 0.7ft 3s 4
mph
999mb 49f 47f
1:00 0.7ft 3s 4 7 mph 998.1mb 49f 48f
12:00 1ft 3s 13 18 mph 996.7mb 49f 49f
Fr 11/21 11:00 1.3ft 3s 13 16 mph 995.5mb 49f 48f
10:00 1.6ft 3s 13 16 mph 994.1mb 49f 48f
9:00 2ft 3s 18 20 mph 992.8mb 49f 48f
8:00 2.5ft 6s 16 18 mph 991.5mb 49f 48f
7:00 3.5ft 6s 16 20 mph 990.6mb 49f 47f
6:00 5ft 6s 16 20 mph 989.7mb 49f 48f
5:00 5ft 5s 20 29 mph 989.1mb 49f 50f
4:00 5.5ft 5s 7 13 mph 990mb 49f 50f
3:00 5.5ft 5s 13 20 mph 990.5mb 49f 50f
2:00  -   -  27
mph
991.1mb - 50f
1:00 5ft 6s 27 34 mph 992.8mb 49f 50f
12:00 6ft 6s 27 34 mph 994.6mb 49f 50f
11:00 6ft 6s 36 43 mph 996mb 49f 50f
10:00 5.5ft 6s 34 40 mph 997mb 49f 50f
9:00 5ft 5s 27 34 mph 998.6mb 49f 50f
8:00 5ft 4s 22 27 mph 999.8mb 49f 50f
7:00 4ft 4s 25 31 mph 1000.8mb 49f 50f
6:00 3.5ft 4s 22 27 mph 1002.1mb 49f 49f
5:00 3.5ft 4s 20 25 mph 1004mb 49f 49f
4:00 3ft 4s 22 31 mph 1005.3mb 49f 49f
3:00 2ft 4s 25 27 mph 1006.6mb 49f 50f
2:00 2ft 4s 20 25 mph 1007.6mb 49f 50f
1:00 1.6ft 4s 18 20 mph 1008.5mb 49f 50f
12:00 1.6ft 4s 18 20 mph 1009.1mb 49f 50f
Do 11/20 11:00 2.5ft 4s 16 18 mph 1009.5mb 49f 50f
10:00 3ft 5s 13 16 mph 1010.2mb 49f 49f
9:00 3.5ft 4s 11 18 mph 1010.7mb 49f 50f
8:00 4ft 5s 13 16 mph 1010.7mb 49f 50f
7:00 4.5ft 5s 16 18 mph 1010.5mb 49f 50f
6:00 4.5ft 5s 22 27 mph 1010.2mb 49f 50f
5:00 5ft 6s 22 27 mph 1010.2mb 49f 50f
4:00 5ft 5s 27 34 mph 1009.7mb 49f 50f
3:00 5ft 5s 27 34 mph 1009.6mb 49f 50f
2:00 5.5ft 6s 22 27 mph 1009.9mb 49f 50f
1:00 5.5ft 6s 27 34 mph 1010mb 49f 49f
12:00 5.5ft 6s 29 36 mph 1010.1mb 49f 49f
11:00 6ft 6s 29 36 mph 1010.4mb 49f 49f
10:00 6ft 6s 29 36 mph 1010.4mb 49f 49f
9:00 6ft 6s 27 31 mph 1010.3mb 49f 49f
8:00 5ft 6s 29 34 mph 1010.2mb 49f 48f
7:00 4.5ft 5s 29 34 mph 1009.9mb 48f 48f
6:00 3ft 3s 27 34 mph 1009.6mb 48f 48f
5:00 1.6ft 3s 20 25 mph 1009.6mb 48f 47f
4:00 0.7ft 2s 20 25 mph 1009.1mb 49f 47f
3:00 0.7ft 2s 7 9 mph 1009.2mb 48f 46f
2:00 0.7ft 2s 4 7 mph 1009.1mb 48f 46f
1:00 0.3ft 2s 9 13 mph 1009.4mb 48f 46f
12:00  -  8s 9 11 mph 1009.5mb 47f 46f
Mi 11/19 11:00  -  8s 4 7 mph 1009.3mb 47f 46f
10:00  -  7s  -  2 mph 1009.2mb 46f 45f
9:00  -  8s 4
mph
1009.1mb 46f 45f
8:00  -  8s 4
mph
1009.5mb 47f 45f
7:00  -  8s 2
mph
1009.8mb 47f 45f
6:00  -  4s  -  2 mph 1010.1mb 47f 45f
5:00  -  4s 2
mph
1010.4mb 46f 45f